Content
SEND FEEDBACK

Daily
Averages
Monthly
Summary
United States of America

CONCORD - MALLARD RESERVOIR, CALIFORNIA


Home > North America > United States > California
Elevation: 50 feet     Latitude: 38 01N     Longitude: 122 01W

WEATHER
 
SELECT A DAY
Number of Records: 166,365;   Date Range: 1/1/95 - 7/28/14
 
SHARE

PRINT THIS DATA

[ ← Previous Day ]
WEATHER ALMANAC - JANUARY 31, 2013
[ Next Day → ]
[ °C ]   °F
Weather ElementAverageHighLow
Temperature48.3 °F62.1 °F (1:53 pm)35.1 °F (6:53 am)
Dewpoint40.3 °F44.1 °F (10:53 am)34 °F (6:53 am)
Humidity76.8 %97 % (4:53 am)50 % (1:53 pm)
Barometer30.21 in30.27 in (7:53 am)30.15 in (5:53 pm)
Wind Speed2.9 mph10.4 mph (3:53 pm)
Wind Gust16.1 mph (3:53 pm)
Weather ElementAverage
Visibility8 mi
Wind DirectionNNE (35.9 °)

Weather ElementTotal
Precipitation---
Heating Degree Days16.4 (Base 65)
Averaged from 22 records on January 31, 2013
WEATHER CONDITIONS BREAKOUT
WIND DIRECTION BREAKOUT
WEATHER BY HOUR - JANUARY 31, 2013
[ °C ]   °F
Local TimeTemperatureDewpointHumidityBarometerVisibilityWind DirectionWind SpeedGust SpeedPrecipitationEventsConditions
1:53 AM39.0 °F37.0 °F93 %30.26 in10.0 miCalmClear
2:53 AM37.9 °F36.0 °F93 %30.25 in10.0 miCalmClear
4:53 AM36.0 °F35.1 °F97 %30.24 in9.0 miCalm0.00 inSnowLight Snow
5:53 AM36.0 °F35.1 °F97 %30.25 in9.0 miCalm0.00 inSnowLight Snow
6:53 AM35.1 °F34.0 °F96 %30.26 in9.0 miCalm0.00 inClear
7:53 AM36.0 °F35.1 °F97 %30.27 in10.0 miCalmClear
8:53 AM43.0 °F39.9 °F89 %30.27 in6.0 miCalmHaze
9:53 AM48.0 °F43.0 °F83 %30.27 in5.0 miNorth (360°)3.5 mphHaze
10:53 AM55.0 °F44.1 °F67 %30.26 in6.0 miNNE (20°)3.5 mphHaze
11:53 AM57.9 °F44.1 °F60 %30.24 in8.0 miNE (50°)8.1 mphHaze
12:53 PM60.1 °F44.1 °F55 %30.21 in7.0 miNorth (10°)9.2 mphHaze
1:53 PM62.1 °F43.0 °F50 %30.18 in7.0 miNNE (30°)8.1 mphHaze
2:53 PM62.1 °F44.1 °F52 %30.17 in9.0 miNorth (10°)9.2 mphHaze
3:53 PM61.0 °F43.0 °F52 %30.17 in10.0 miNNE (30°)10.4 mph16.1 mphClear
4:53 PM60.1 °F43.0 °F53 %30.16 in10.0 miNE (40°)5.8 mphClear
5:53 PM57.0 °F42.1 °F57 %30.15 in10.0 miEast (90°)3.5 mphClear
6:53 PM50.0 °F41.0 °F71 %30.16 in9.0 miCalmClear
7:53 PM50.0 °F42.1 °F74 %30.16 in9.0 miCalmClear
8:53 PM46.0 °F41.0 °F83 %30.16 in8.0 miCalmClear
9:53 PM44.1 °F41.0 °F89 %30.17 in5.0 miCalmClear
10:53 PM43.0 °F39.9 °F89 %30.17 in5.0 miCalmClear
11:53 PM42.1 °F39.9 °F92 %30.17 in5.0 miSSE (150°)3.5 mphClear
Hourly data recorded from KCCR, located miles away from Concord - Mallard Reservoir, California







STORIES FROM OUR PARTNERS